SL-16 DEB, 27749

Orbit data source: Space-Track

SL-16 DEB, 27749 is space debris in LEO originally from a launch on Fri, 25 Dec 1992 UTC launched from the Tyuratam Missile And Space Complex (TTMTR). Debris objects in space refer to the collection of defunct objects orbiting the Earth. Examples of debris include non-operational satellites, rocket bodies, and fragments generated from explosions, collisions, or faulty payload assembly.

Loading next visibility...
Identifier
27749, 1992-093JL
Orbit
LEO
Country
Flag of CISCIS
Related business
Manufacturer
Unknown
Mission
Spacecraft
Bus & Motor
Unknown
Mass
Unknown
Launch date (UTC)
1992-12-25 (33 years ago)
Launch vehicle
Unknown
Launch site
Tyuratam Missile And Space Complex (TTMTR)
Object type
Payload
Rocket body
Debris
Shape & HBR
Unknown shape, 0.1 m
Radar Cross Section
Small (<0.1 m²)

Expand to show TLE details & history
Last TLE update: 1 day ago

TLE from 1 day ago
0 SL-16 DEB
1 27749U 92093JL  25296.21506366  .00005815  00000-0  22140-2 0  9995
2 27749  71.1015  20.8770 0092136 167.2076 221.3035 14.28934031260504
Epoch: 2025-10-23T05:09Z
TLE epoch observation values (Epoch: 2025-10-23T05:09:41.500Z)
Latitude
26.24589°
Longitude
-78.7573°
Altitude
847.911 km
Speed
7.405 km/s
True Right ascension
02h 02m 10s
True Declination
26° 06' 41"
Sunlit
Object was in full shadow at epoch
Visualization orbit readout
Latitude
Unknown
Longitude
Unknown
Altitude
Unknown
Speed
Unknown
Apparent Right ascension
Unknown
Apparent Declination
Unknown
Sunlit
N/A
Visualization observer readout
Local Sidereal Time
23:59:44
Azimuth
Unknown
Elevation
Unknown
Doppler factor
Unknown
Orbital elements
Apogee altitude
859.271 km
Perigee altitude
727.123 km
Semi-major axis
7,171.334 km
Eccentricity
0.00921
Inclination
71.1015°
RAAN
20.877°
Arg. of periapsis
167.2076°
True anomaly
220.61262°
Mean anomaly
221.3035°
Eccentric anomaly
220.95746°
Mean motion
3.57391 °/min
Orbital period
100.73 mins
BSTAR
0.002214
Loading maneuver chart data...
Computing Atmospheric mass density...
Loading historical data...
Loading historical data...
Loading historical data...
Loading historical data...
Loading historical data...
Loading historical data...
Loading historical data...

Documentation

Showing up to 5 results
|